Weather past 2 weeks in Jamestown, Saint Helena

Now
65 °F

Overcast.


Feels Like: 65 °F
Forecast: 72 / 74 °F
Wind: 16 mph from Southeast

Location: Saint Helena Island

Current Time: May 27, 2015 at 10:00:39 AM

Latest Report: May 27, 2015 at 9:00 AM


Visibility: 37 mi

Pressure: 30.11 "Hg

Humidity: 63%

Dew point: 52 °F

Location of JamestownLocation

Historic Weather in Jamestown — Graph

°F

Jamestown temperature yesterday

Maximum temperature yesterday: 69 °F (at 11:00 AM)
Minimum temperature yesterday: 63 °F (at 7:00 AM)
Average temperature yesterday: 66 °F

Past Weeks' High & Low Weather Summary

 TemperatureHumidityPressure
High73 °F (May 17, 2:00 PM)100% (May 19, 5:00 AM)30.16 "Hg (May 19, 5:00 AM)
Low59 °F (May 16, 4:00 AM)52% (May 17, 12:00 PM)29.98 "Hg (May 16, 3:00 PM)
Average66 °F82%30.07 "Hg
* Reported May 12 8:00 AM — May 27 8:00 AM, Jamestown, Weather by CustomWeather, © 2015

Note: Actual official high and low records may vary slightly from our data, if they occured in-between our weather recording intervals... More about our weather records

Advertising

Jamestown weather history for previous 24 hours

 ConditionsComfort  
Time TempWeatherWind HumidityBarometerVisibility
8:00 AM
Wed, May 27
65 °FMild.12 mph70%30.10 "HgN/A
7:00 AM64 °FMild.15 mph69%30.09 "HgN/A
5:00 AM65 °FMild.13 mph60%30.07 "HgN/A
4:00 AM65 °FMild.14 mph63%30.07 "HgN/A
2:00 AM65 °FMild.15 mph74%30.09 "HgN/A
1:00 AM64 °FMild.12 mph76%30.11 "HgN/A
11:00 PM
Tue, May 26
66 °FMild.15 mph77%30.12 "HgN/A
10:00 PM66 °FMild.15 mph79%30.13 "HgN/A
8:00 PM65 °FMild.16 mph73%30.11 "HgN/A
7:00 PM65 °FMild.17 mph71%30.09 "HgN/A
6:00 PM66 °FMild.16 mph71%30.07 "HgN/A
5:00 PM66 °FMild.16 mph70%30.06 "HgN/A
4:00 PM66 °FMild.16 mph71%30.05 "HgN/A
3:00 PM66 °FOvercast.17 mph72%30.06 "Hg9 mi
2:00 PM68 °FOvercast.14 mph72%30.07 "Hg25 mi
1:00 PM68 °FOvercast.16 mph75%30.09 "Hg25 mi
12:00 PM68 °FOvercast.17 mph77%30.12 "Hg22 mi
11:00 AM69 °FPartly sunny.15 mph70%30.13 "Hg22 mi
10:00 AM67 °FPartly sunny.13 mph76%30.13 "Hg19 mi
Weather by CustomWeather, © 2015

See weather overviewHow to use our weather pages